2024-168C

Last updated on Sat Oct 19 2024 00:02:04 GMT+0000 (Coordinated Universal Time)

1 61187U 24168C 24291.56457394 -.00000061 00000+0 00000+0 0 9991 2 61187 54.9781 323.2515 0066437 180.4846 242.9154 1.84329145 528
UTC large
Height (km)
Speed (km/s)
/
Latitude / Longitude
Inclination (degrees)
Orbital Period (minutes)
Azimuth
Elevation
Range (km)
Doppler Factor

Next 0 passes for location: London (51.5072 / 0.1276)

Sorry there are no passes over London.